ISS DEB (43847 NORAD) Tracking and Keplerian Element Data

This shows tracking and keplerian element data for the satellite.

Feedback or suggestion? Click here.




ElementValue
Catalog43847
NameISS DEB
Epoch Orbit217
Epoch Day360.66203491
Epoch Year2018
RAAN138.3558
Inclination51.6093
Eccentricity0.0030863
Argument of Perigee7.1571
Mean Anonmoly91.0587
Mean Motion15.92940694
Decay Rate0.05952134
L11 43847U 98067PS 18360.66203491 .05952134 71902-1 22533-1 0 9990
L22 43847 51.6093 138.3558 0030863 7.1571 91.0587 15.92940694 2175

Live tracking and technical data element details for ISS DEB (NORAD 43847). ISS DEB can be tracked NOW for your location showing map with azimuth and elevation plus other details from your city location.

Track the satellite on the map from your city or location and see movement details for azimuth, elevation, latitude, longitude, range, height, and movement on the map or in text.







IsCatalogInMostPopularTable: catalog: 43847, numindb: 44
Update: records affected: 1



GetName: 43847 ISS DEB

Hit Count: updated at: Thu, 17 Jan 2019 16:20:39 GMT